Вернуться в каталог

COSMOS 2251 DEB

АктивенLEO
NORAD 34953·DEBRIS·🇷🇺 Russia

Запущен Jun 16, 1993 с Plesetsk Cosmodrome

Loading…

Ближайшие Пролёты (ближайшие 24 часа)

TLE

СвежийSource: Space-Track

Эпоха: Sep 14, 2026, 08:11 UTC

1 34953U 93036AEG 26257.34150922  .00003059  00000-0  48687-3 0  9996
2 34953  74.0907 214.5250 0053440 135.7816  15.9528 14.71511290921798

Отслеживайте COSMOS 2251 DEB в реальном времени с AllMySat

Download on the App Store